Palestine, IL

5:39 PM CST on December 04, 2016 (GMT -0600)
Robinson Municipal

Weather History for KRSV - October, 2011

Change the Weather History Date:

Monday, October 31, 2011

  Actual Average (KLWV) Record (KLWV)
Temperature  
Mean Temperature 46 °F 53 °F  
Max Temperature 59 °F 64 °F 78 °F (1999)
Min Temperature 32 °F 42 °F 31 °F (1993)
Degree Days  
Heating Degree Days 19 13  
Month to date heating degree days 258  
Since 1 July heating degree days 297  
Cooling Degree Days 0 0  
Month to date cooling degree days 32  
Year to date cooling degree days 1386  
Moisture  
Dew Point 34 °F    
Average Humidity 66    
Maximum Humidity 100    
Minimum Humidity 31    
Precipitation  
Precipitation 0.00 in 0.07 in 2.51 in (2013)
Month to date precipitation 3.98  
Year to date precipitation 36.52  
Sea Level Pressure  
Sea Level Pressure 30.10 in    
Wind  
Wind Speed 6 mph (SW)    
Max Wind Speed 17 mph    
Max Gust Speed 21 mph    
Visibility 10 miles    
Events Rain    
T = Trace of Precipitation, MM = Missing Value Source: NWS Daily Summary

Daily Weather History Graph

Daily Weather History Graph

Search for Another Location

Airport or City:

Trip Planner

Search our weather history database for the weather conditions in past years. The results will help you decide how hot, cold, wet, or windy it might be!

Date:

Astronomy

Oct. 31, 2011 Rise Set
Actual Time 7:16 AM CDT 5:51 PM CDT
Civil Twilight 6:48 AM CDT 6:18 PM CDT
Nautical Twilight 6:17 AM CDT 6:50 PM CDT
Astronomical Twilight 5:46 AM CDT 7:21 PM CDT
Moon 12:22 PM CDT (10/31) 10:27 PM CDT (10/31)
Length of Visible Light 11h 29m
Length of Day
10h 34m
Waxing Crescent, 30% of the Moon is Illuminated
Oct 31
Waxing Crescent
Nov 2
First Quarter
Nov 10
Full
Nov 18
Last Quarter
Nov 25
New

Hourly Weather History & Observations

Time (CDT) Temp. Windchill Dew Point Humidity Pressure Visibility Wind Dir Wind Speed Gust Speed Precip Events Conditions
12:15 AM 50.0 °F - 37.4 °F 62% 30.04 in 10.0 mi South 6.9 mph - N/A   Overcast
12:35 AM 48.2 °F - 37.4 °F 66% 30.05 in 10.0 mi SW 4.6 mph - N/A   Overcast
12:55 AM 46.4 °F 44.3 °F 35.6 °F 66% 30.05 in 10.0 mi WSW 4.6 mph - N/A   Mostly Cloudy
1:15 AM 46.4 °F 44.3 °F 35.6 °F 66% 30.05 in 10.0 mi SSE 4.6 mph - N/A   Mostly Cloudy
1:35 AM 48.2 °F - 37.4 °F 66% 30.04 in 10.0 mi South 5.8 mph - N/A   Light Drizzle
1:55 AM 48.2 °F - 39.2 °F 71% 30.04 in 10.0 mi SW 6.9 mph - N/A Rain Light Rain
2:15 AM 46.4 °F 43.5 °F 41.0 °F 81% 30.04 in 10.0 mi SSW 5.8 mph - N/A   Overcast
2:35 AM 46.4 °F 42.9 °F 41.0 °F 81% 30.05 in 10.0 mi SSW 6.9 mph - N/A   Overcast
2:55 AM 46.4 °F 42.9 °F 39.2 °F 76% 30.05 in 10.0 mi SW 6.9 mph - N/A   Mostly Cloudy
3:15 AM 42.8 °F 38.6 °F 37.4 °F 81% 30.05 in 10.0 mi SW 6.9 mph - N/A   Clear
3:35 AM 42.8 °F 40.1 °F 37.4 °F 81% 30.05 in 10.0 mi SW 4.6 mph - N/A   Clear
3:55 AM 41.0 °F 36.4 °F 35.6 °F 81% 30.05 in 10.0 mi SW 6.9 mph - N/A   Clear
4:15 AM 41.0 °F 36.4 °F 37.4 °F 87% 30.05 in 10.0 mi WSW 6.9 mph - N/A   Clear
4:35 AM 41.0 °F 37.1 °F 37.4 °F 87% 30.05 in 10.0 mi SW 5.8 mph - N/A   Clear
4:55 AM 41.0 °F 37.1 °F 35.6 °F 81% 30.06 in 10.0 mi WSW 5.8 mph - N/A   Clear
5:15 AM 39.2 °F 35.9 °F 35.6 °F 87% 30.06 in 10.0 mi SSW 4.6 mph - N/A   Clear
5:35 AM 35.6 °F 31.7 °F 33.8 °F 93% 30.06 in 10.0 mi South 4.6 mph - N/A   Clear
6:15 AM 39.2 °F 37.0 °F 37.4 °F 93% 30.06 in 10.0 mi South 3.5 mph - N/A   Clear
6:55 AM 35.6 °F - 33.8 °F 93% 30.06 in 10.0 mi Calm Calm - N/A   Scattered Clouds
7:15 AM 35.6 °F - 33.8 °F 93% 30.06 in 10.0 mi Calm Calm - N/A   Clear
7:35 AM 37.4 °F - 35.6 °F 93% 30.06 in 10.0 mi Calm Calm - N/A   Clear
7:55 AM 33.8 °F 30.8 °F 33.8 °F 100% 30.06 in 10.0 mi South 3.5 mph - N/A   Clear
8:15 AM 39.2 °F - 37.4 °F 93% 30.07 in 10.0 mi Calm Calm - N/A   Clear
8:35 AM 42.8 °F - 41.0 °F 93% 30.09 in 10.0 mi Calm Calm - N/A   Clear
8:55 AM 46.4 °F 42.4 °F 37.4 °F 71% 30.09 in 10.0 mi SSW 8.1 mph - N/A   Clear
9:15 AM 50.0 °F - 37.4 °F 62% 30.08 in 10.0 mi South 5.8 mph - N/A   Clear
9:35 AM 51.8 °F - 35.6 °F 54% 30.09 in 10.0 mi SW 9.2 mph - N/A   Clear
9:55 AM 51.8 °F - 33.8 °F 50% 30.09 in 10.0 mi SW 9.2 mph - N/A   Clear
10:15 AM 51.8 °F - 35.6 °F 54% 30.09 in 10.0 mi SSW 8.1 mph - N/A   Clear
10:35 AM 53.6 °F - 33.8 °F 47% 30.09 in 10.0 mi WSW 8.1 mph - N/A   Clear
10:55 AM 53.6 °F - 33.8 °F 47% 30.09 in 10.0 mi SSW 9.2 mph - N/A   Clear
11:15 AM 53.6 °F - 33.8 °F 47% 30.10 in 10.0 mi WSW 11.5 mph - N/A   Clear
11:35 AM 55.4 °F - 32.0 °F 41% 30.10 in 10.0 mi SW 13.8 mph - N/A   Clear
11:55 AM 55.4 °F - 32.0 °F 41% 30.10 in 10.0 mi WSW 13.8 mph 17.3 mph N/A   Clear
12:15 PM 55.4 °F - 32.0 °F 41% 30.09 in 10.0 mi WSW 13.8 mph 20.7 mph N/A   Clear
12:35 PM 57.2 °F - 32.0 °F 38% 30.09 in 10.0 mi West 11.5 mph 18.4 mph N/A   Clear
12:55 PM 57.2 °F - 32.0 °F 38% 30.09 in 10.0 mi WSW 16.1 mph - N/A   Clear
1:15 PM 57.2 °F - 32.0 °F 38% 30.09 in 10.0 mi WSW 17.3 mph 20.7 mph N/A   Clear
1:35 PM 59.0 °F - 32.0 °F 36% 30.09 in 10.0 mi West 16.1 mph 19.6 mph N/A   Clear
1:55 PM 59.0 °F - 30.2 °F 34% 30.09 in 10.0 mi West 15.0 mph 19.6 mph N/A   Clear
2:15 PM 59.0 °F - 30.2 °F 34% 30.09 in 10.0 mi WSW 13.8 mph 20.7 mph N/A   Clear
2:35 PM 59.0 °F - 28.4 °F 31% 30.10 in 10.0 mi West 12.7 mph 19.6 mph N/A   Clear
2:55 PM 59.0 °F - 30.2 °F 34% 30.10 in 10.0 mi WSW 13.8 mph 18.4 mph N/A   Clear
3:15 PM 57.2 °F - 30.2 °F 36% 30.11 in 10.0 mi West 9.2 mph 12.7 mph N/A   Clear
3:55 PM 55.4 °F - 30.2 °F 38% 30.11 in 10.0 mi WSW 13.8 mph - N/A   Clear
4:15 PM 55.4 °F - 30.2 °F 38% 30.12 in 10.0 mi WSW 9.2 mph 17.3 mph N/A   Clear
4:35 PM 55.4 °F - 32.0 °F 41% 30.12 in 10.0 mi West 11.5 mph 18.4 mph N/A   Clear
4:55 PM 53.6 °F - 32.0 °F 44% 30.12 in 10.0 mi West 8.1 mph - N/A   Clear
5:15 PM 51.8 °F - 32.0 °F 47% 30.13 in 10.0 mi West 9.2 mph - N/A   Clear
5:35 PM 50.0 °F - 32.0 °F 50% 30.14 in 10.0 mi West 8.1 mph - N/A   Clear
5:55 PM 46.4 °F 42.9 °F 32.0 °F 57% 30.14 in 10.0 mi West 6.9 mph - N/A   Clear
6:15 PM 44.6 °F 42.2 °F 32.0 °F 61% 30.15 in 10.0 mi West 4.6 mph - N/A   Clear
6:35 PM 42.8 °F 41.1 °F 32.0 °F 66% 30.16 in 10.0 mi West 3.5 mph - N/A   Clear
6:55 PM 42.8 °F - 32.0 °F 66% 30.16 in 10.0 mi Calm Calm - N/A   Clear
7:15 PM 39.2 °F - 32.0 °F 75% 30.17 in 10.0 mi Calm Calm - N/A   Clear
7:35 PM 37.4 °F - 32.0 °F 81% 30.18 in 10.0 mi Calm Calm - N/A   Clear
7:55 PM 35.6 °F - 32.0 °F 87% 30.18 in 10.0 mi Calm Calm - N/A   Clear
8:15 PM 35.6 °F - 32.0 °F 87% 30.18 in 10.0 mi Calm Calm - N/A   Clear
8:35 PM 35.6 °F - 32.0 °F 87% 30.18 in 10.0 mi Calm Calm - N/A   Clear
8:55 PM 33.8 °F - 32.0 °F 93% 30.19 in 10.0 mi Calm Calm - N/A   Clear
9:15 PM 33.8 °F - 32.0 °F 93% 30.19 in 10.0 mi Calm Calm - N/A   Clear
9:35 PM 33.8 °F - 32.0 °F 93% 30.19 in 10.0 mi Calm Calm - N/A   Clear
9:55 PM 32.0 °F - 32.0 °F 100% 30.20 in 10.0 mi Calm Calm - N/A   Clear
10:15 PM 33.8 °F - 32.0 °F 93% 30.20 in 10.0 mi Calm Calm - N/A   Clear
10:35 PM 32.0 °F - 32.0 °F 100% 30.20 in 10.0 mi Calm Calm - N/A   Clear
10:55 PM 32.0 °F - 30.2 °F 93% 30.20 in 10.0 mi Calm Calm - N/A   Clear
11:15 PM 32.0 °F - 32.0 °F 100% 30.20 in 10.0 mi Calm Calm - N/A   Clear
11:35 PM 32.0 °F - 30.2 °F 93% 30.20 in 10.0 mi Calm Calm - N/A   Clear